[[{"header":{"parameterUnit":"m.s-1","parameterCategory":1,"la1":30.2991,"la2":30.254,"lo1":-89.0895,"lo2":-89.0444,"dy":0.0017,"dx":0.0017,"nx":28,"ny":28,"refTime":"2024-08-06T09:00:00:Z","depth":0,"parameterNumber":2,"parameterNumberName":"U-component_of_WINDS"},"data":[0,0,0,0,0,0,0,0,0,0,0,0,0,0,0,0,0,0,0,0,0,0,0,0,0,0,0,0,0,0,0,0,0,0,0,0,0,0,0,0,0,0,0,0,0,0,0,0,0,0,0,0,0,0,0,0,0,0,2.6061,2.6062,0,2.6108,2.6109,2.6109,2.608,2.6078,2.6077,2.6075,2.6126,2.6128,2.6131,0,0,0,0,0,0,0,0,0,0,0,0,0,2.5952,2.5954,2.6061,2.6062,2.6062,2.6108,2.6109,2.6109,2.608,2.6078,2.6076,2.6075,2.6125,2.6128,2.6131,0,0,0,0,0,0,0,0,0,0,0,0,0,2.5999,2.5955,2.6061,2.6053,2.6053,2.6108,2.6109,2.611,2.608,2.6078,2.6076,2.6074,2.6124,2.6128,2.6132,2.6198,0,0,2.6144,2.6145,0,0,0,0,0,0,0,0,2.5997,2.6003,2.6054,2.6054,2.6054,2.6086,2.6089,2.6139,2.6081,2.607,2.6075,2.6073,2.6114,2.6119,2.6132,2.62,2.6202,2.6144,2.6146,2.6148,2.6149,0,0,0,0,0,0,0,2.5993,2.6001,2.608,2.6055,2.6054,2.6049,2.6054,2.6098,2.6103,2.6071,2.6069,2.6074,2.6114,2.6129,2.6133,2.6203,2.6144,2.6147,2.615,2.6151,2.6335,2.6337,0,0,0,0,0,0,2.599,2.5999,2.6078,2.6081,2.6019,2.6053,2.6058,2.6078,2.6103,2.6104,2.6076,2.6073,2.6123,2.6129,2.6135,2.6219,2.6148,2.6152,2.6154,2.6332,2.6335,2.6338,0,0,0,0,0,0,2.5988,2.5998,2.6076,2.604,2.6049,2.6057,2.608,2.608,2.6094,2.6107,2.6108,2.609,2.6121,2.6129,2.6184,2.622,2.6154,2.6157,2.6329,2.6333,2.6337,2.6384,0,0,0,0,0,0,2.5985,2.5997,2.602,2.604,2.6051,2.6123,2.6082,2.6082,2.6101,2.6097,2.612,2.6122,2.612,2.6178,2.6188,2.6224,2.616,2.6326,2.6331,2.6335,2.638,2.6389,2.6398,0,0,0,0,0,2.5981,2.6031,2.6022,2.6032,2.6081,2.6125,2.6131,2.6128,2.6104,2.6129,2.6138,2.6121,2.6214,2.6184,2.6194,2.6233,2.6324,2.633,2.6335,2.6376,2.6387,2.6397,0,0,0,0,0,0,2.6015,2.6033,2.6023,2.608,2.6102,2.612,2.6151,2.6139,2.6168,2.6163,2.6159,2.6164,2.6222,2.6232,2.6198,2.6302,2.6266,2.6274,2.6293,2.6304,2.6313,2.631,2.6163,0,0,0,0,0,2.6029,2.6062,2.6077,2.6126,2.6137,2.6143,2.6162,2.6158,2.6179,2.6188,2.6201,2.6224,2.6259,2.6281,2.6314,2.6381,2.6388,2.6413,2.6422,2.6429,2.6437,2.6479,2.6492,2.6357,2.6356,2.6356,0,0,2.6058,2.6073,2.6093,2.6134,2.6149,2.6186,2.615,2.6189,2.6218,2.6194,2.6247,2.6258,2.6284,2.6346,2.6374,2.6357,2.6476,2.6436,2.6442,2.6446,2.6486,2.6499,2.6511,2.636,2.636,2.6359,0,0,2.6132,2.6144,2.6189,2.6206,2.6231,2.6235,2.6246,2.6267,2.6274,2.6327,2.6312,2.6347,2.6405,2.6426,2.6444,2.6531,2.6519,2.6542,2.659,2.6631,2.6642,2.6651,2.6687,2.6699,2.6549,2.6549,2.6549,0,2.6165,2.6219,2.6214,2.6256,2.6276,2.6257,2.6306,2.6323,2.6357,2.6373,2.6352,2.643,2.6445,2.6515,2.6537,2.6551,2.6567,2.654,2.664,2.665,2.6659,2.6693,2.6706,2.6552,2.6552,2.6552,2.6551,0,2.6262,2.63,2.6333,2.6369,2.6392,2.6437,2.6442,2.6467,2.6462,2.6469,2.6527,2.6546,2.6584,2.66,2.6594,2.6671,2.666,2.664,2.6604,2.6675,2.6707,2.672,2.6557,2.6556,2.6555,2.6554,0,0,2.6356,2.639,2.6403,2.6422,2.645,2.648,2.6526,2.6564,2.6588,2.6613,2.6655,2.6708,2.6691,2.6712,2.6709,2.6745,2.682,2.6721,2.6722,2.6743,2.6912,2.6929,2.6944,2.6811,2.6813,2.6815,2.6911,0,2.6434,2.6513,2.6513,2.6587,2.6626,2.6611,2.6652,2.6675,2.6684,2.672,2.673,2.677,2.6742,2.6755,2.679,2.6803,2.6854,2.6796,2.6853,2.6855,2.685,2.696,2.6977,2.7066,2.6923,2.6925,2.6927,0,2.6535,2.6566,2.6645,2.6673,2.6689,2.6725,2.6763,2.6796,2.6824,2.6829,2.6855,2.6848,2.6899,2.6861,2.6934,2.6894,2.6918,2.6929,2.6932,2.694,2.6897,2.6974,2.7094,2.7109,2.6945,2.6944,2.6943,0,2.6602,2.6662,2.6719,2.6734,2.6767,2.6794,2.6809,2.6835,2.686,2.6894,2.6911,2.695,2.6972,2.7004,2.701,2.698,2.7085,2.7046,2.7094,2.7094,2.7118,2.7117,2.7247,2.7127,2.7127,2.7127,2.7127,0,2.6691,2.6741,2.675,2.6785,2.6843,2.6842,2.69,2.6913,2.6938,2.6978,2.6966,2.7005,2.7009,2.7049,2.7054,2.7117,2.7126,2.7134,2.7135,2.7137,2.7137,2.7154,2.715,2.7131,2.713,2.7129,2.7128,0,2.6775,2.6782,2.6844,2.6871,2.6879,2.6921,2.6945,2.6981,2.699,2.7041,2.7054,2.7069,2.7117,2.7126,2.7181,2.7185,2.7262,2.7255,2.7252,2.7253,2.7302,2.7299,2.7451,2.7473,2.7335,2.7337,2.7338,0,2.6832,2.6871,2.6903,2.6929,2.6946,2.6988,2.7014,2.7017,2.7045,2.7084,2.7116,2.7162,2.72,2.7278,2.7296,2.734,2.7337,2.7387,2.7343,2.7346,2.7343,2.7342,2.7348,2.7396,2.7398,2.7399,2.74,0,2.6936,2.6939,2.6976,2.7017,2.7049,2.7081,2.7111,2.7134,2.7141,2.7174,2.7223,2.7253,2.7312,2.7361,2.7406,2.7424,2.7416,2.7414,2.7428,2.7431,2.743,2.7436,2.7279,2.741,2.7409,2.7409,2.7408,2.7408,2.7011,2.7047,2.7077,2.7121,2.7144,2.7175,2.7211,2.7226,2.7267,2.7315,2.7315,2.737,2.7403,2.7463,2.7485,2.753,2.7515,2.7534,2.754,2.7545,2.7552,2.7421,2.7538,2.7538,2.7537,2.7537,2.7537,0,2.7118,2.7137,2.7178,2.7222,2.7258,2.7245,2.728,2.7312,2.736,2.7391,2.7429,2.7489,2.7537,2.756,2.7609,2.7642,2.7639,2.7655,2.7654,2.766,2.7561,2.7546,2.7656,2.7656,2.7656,2.7656,2.7656,2.7656,2.7178,2.724,2.7247,2.7323,2.7342,2.7396,2.7417,2.7447,2.7472,2.7539,2.7579,2.7594,2.7624,2.7675,2.7721,2.7727,2.7747,2.7765,2.777,2.7678,2.7666,2.7654,2.764,2.7769,2.7769,2.7865,2.7866,2.7867]},{"header":{"parameterUnit":"m.s-1","parameterCategory":1,"la1":30.2991,"la2":30.254,"lo1":-89.0895,"lo2":-89.0444,"dy":0.0017,"dx":0.0017,"nx":28,"ny":28,"refTime":"2024-08-06T09:00:00:Z","depth":0,"parameterNumber":3,"parameterNumberName":"V-component_of_WINDS"},"data":[0,0,0,0,0,0,0,0,0,0,0,0,0,0,0,0,0,0,0,0,0,0,0,0,0,0,0,0,0,0,0,0,0,0,0,0,0,0,0,0,0,0,0,0,0,0,0,0,0,0,0,0,0,0,0,0,0,0,-0.8631,-0.8628,0,-0.841,-0.8408,-0.8405,-0.8454,-0.8459,-0.8463,-0.8467,-0.8227,-0.8217,-0.8206,0,0,0,0,0,0,0,0,0,0,0,0,0,-0.9082,-0.9073,-0.8631,-0.8628,-0.8625,-0.8411,-0.8408,-0.8404,-0.8454,-0.8459,-0.8464,-0.8469,-0.823,-0.8218,-0.8205,0,0,0,0,0,0,0,0,0,0,0,0,0,-0.8876,-0.9071,-0.8631,-0.8624,-0.8622,-0.8411,-0.8407,-0.8404,-0.8453,-0.8459,-0.8465,-0.8471,-0.8234,-0.8219,-0.8204,-0.7982,0,0,-0.8156,-0.815,0,0,0,0,0,0,0,0,-0.8887,-0.8859,-0.8628,-0.8625,-0.8621,-0.8467,-0.8479,-0.8262,-0.8451,-0.8516,-0.8467,-0.8474,-0.83,-0.828,-0.8224,-0.7971,-0.7961,-0.8155,-0.8146,-0.8139,-0.8135,0,0,0,0,0,0,0,-0.8902,-0.8869,-0.8543,-0.8625,-0.862,-0.8628,-0.8606,-0.8438,-0.8375,-0.8511,-0.8514,-0.8488,-0.83,-0.8239,-0.8219,-0.7957,-0.8156,-0.8142,-0.8132,-0.8126,-0.751,-0.7503,0,0,0,0,0,0,-0.8921,-0.888,-0.855,-0.8537,-0.8773,-0.8615,-0.859,-0.8509,-0.8377,-0.8363,-0.8483,-0.8491,-0.8262,-0.8237,-0.8211,-0.7942,-0.8139,-0.8125,-0.8116,-0.7517,-0.7508,-0.75,0,0,0,0,0,0,-0.893,-0.8891,-0.8559,-0.8709,-0.8668,-0.8601,-0.851,-0.8502,-0.8442,-0.8356,-0.8344,-0.8433,-0.8266,-0.8232,-0.8039,-0.7934,-0.8118,-0.8104,-0.7525,-0.7514,-0.7504,-0.7402,0,0,0,0,0,0,-0.8943,-0.8894,-0.8812,-0.8707,-0.866,-0.8395,-0.8503,-0.8493,-0.8416,-0.8425,-0.8307,-0.8293,-0.8269,-0.8062,-0.8024,-0.7916,-0.8092,-0.7534,-0.752,-0.7508,-0.7415,-0.7389,-0.7368,0,0,0,0,0,-0.8959,-0.8789,-0.8808,-0.8767,-0.8556,-0.8389,-0.8361,-0.8341,-0.8408,-0.8323,-0.8268,-0.8296,-0.7953,-0.8042,-0.7999,-0.7885,-0.7541,-0.7524,-0.7509,-0.7425,-0.7394,-0.7368,0,0,0,0,0,0,-0.8878,-0.8775,-0.8795,-0.8587,-0.8497,-0.8398,-0.829,-0.8309,-0.8194,-0.8207,-0.8182,-0.8155,-0.7958,-0.7902,-0.8004,-0.7663,-0.7755,-0.773,-0.7707,-0.7677,-0.7654,-0.767,-0.8079,0,0,0,0,0,-0.8837,-0.8714,-0.8629,-0.8453,-0.8408,-0.8357,-0.8283,-0.8276,-0.8179,-0.814,-0.8071,-0.7973,-0.7843,-0.7757,-0.7632,-0.7408,-0.7381,-0.7308,-0.7285,-0.7266,-0.7243,-0.7119,-0.7085,-0.7448,-0.7448,-0.7448,0,0,-0.8748,-0.8677,-0.86,-0.8435,-0.8365,-0.8234,-0.8324,-0.8181,-0.8083,-0.8117,-0.7931,-0.7878,-0.7766,-0.7556,-0.746,-0.7504,-0.7138,-0.7246,-0.7232,-0.7219,-0.7099,-0.7065,-0.7034,-0.7437,-0.7439,-0.7441,0,0,-0.852,-0.8456,-0.8302,-0.8231,-0.8125,-0.8092,-0.8056,-0.7954,-0.7921,-0.7736,-0.7759,-0.7639,-0.7416,-0.7335,-0.7265,-0.7009,-0.7029,-0.6969,-0.6845,-0.6724,-0.6695,-0.667,-0.6576,-0.6543,-0.6947,-0.6947,-0.6946,0,-0.8422,-0.823,-0.8219,-0.8075,-0.8001,-0.8032,-0.7874,-0.7804,-0.766,-0.7606,-0.7659,-0.738,-0.7307,-0.7078,-0.7016,-0.6959,-0.6913,-0.698,-0.6701,-0.6675,-0.6651,-0.6561,-0.6527,-0.694,-0.6941,-0.6941,-0.6942,0,-0.8114,-0.7981,-0.7869,-0.7735,-0.7648,-0.7498,-0.746,-0.7373,-0.7374,-0.7334,-0.7144,-0.7058,-0.6917,-0.6863,-0.686,-0.6632,-0.6663,-0.6708,-0.68,-0.661,-0.6525,-0.6491,-0.693,-0.6932,-0.6935,-0.6936,0,0,-0.7825,-0.7691,-0.7649,-0.7589,-0.7476,-0.737,-0.722,-0.7086,-0.7011,-0.6911,-0.6782,-0.6594,-0.6636,-0.6556,-0.6545,-0.6439,-0.6239,-0.6497,-0.6494,-0.645,-0.5981,-0.5946,-0.5906,-0.6254,-0.6248,-0.6242,-0.599,0,-0.7585,-0.7326,-0.7313,-0.7075,-0.695,-0.6978,-0.6847,-0.6761,-0.6721,-0.6605,-0.6559,-0.6425,-0.6492,-0.6444,-0.6341,-0.6286,-0.6144,-0.6304,-0.6129,-0.6123,-0.6154,-0.5862,-0.5824,-0.559,-0.5957,-0.5951,-0.5947,0,-0.727,-0.7166,-0.6918,-0.6823,-0.677,-0.6653,-0.653,-0.6421,-0.6322,-0.63,-0.6213,-0.6217,-0.6059,-0.6159,-0.5939,-0.6048,-0.5976,-0.5938,-0.5929,-0.5909,-0.6021,-0.5832,-0.5514,-0.5478,-0.5895,-0.5899,-0.5903,0,-0.7082,-0.6879,-0.6705,-0.6653,-0.6538,-0.6455,-0.6402,-0.6311,-0.6232,-0.6123,-0.6071,-0.5943,-0.5872,-0.5771,-0.5739,-0.5816,-0.5519,-0.5617,-0.5492,-0.5493,-0.5426,-0.543,-0.5089,-0.5384,-0.5385,-0.5385,-0.5386,0,-0.6813,-0.6659,-0.6619,-0.6511,-0.6339,-0.6323,-0.6151,-0.6104,-0.6023,-0.5903,-0.5919,-0.5805,-0.5771,-0.565,-0.5624,-0.5444,-0.5412,-0.5387,-0.5381,-0.5384,-0.5387,-0.5334,-0.5348,-0.5376,-0.5378,-0.538,-0.5381,0,-0.6572,-0.654,-0.6351,-0.626,-0.6233,-0.611,-0.6029,-0.5923,-0.5888,-0.5735,-0.5698,-0.5639,-0.5498,-0.5458,-0.5286,-0.5269,-0.5057,-0.5067,-0.5091,-0.509,-0.4967,-0.4978,-0.4578,-0.4524,-0.4857,-0.4854,-0.4851,0,-0.6402,-0.6285,-0.6183,-0.6107,-0.6052,-0.5928,-0.5849,-0.5829,-0.5745,-0.5625,-0.5533,-0.5395,-0.5283,-0.5055,-0.4994,-0.4863,-0.4868,-0.4737,-0.4848,-0.4854,-0.4863,-0.4869,-0.4856,-0.4715,-0.4711,-0.4709,-0.4706,0,-0.6102,-0.6093,-0.5981,-0.5862,-0.5769,-0.5673,-0.5581,-0.5517,-0.5483,-0.5387,-0.5246,-0.516,-0.4988,-0.4849,-0.4717,-0.4658,-0.4674,-0.4673,-0.4637,-0.4636,-0.4654,-0.464,-0.5031,-0.4681,-0.4683,-0.4685,-0.4687,-0.4688,-0.5889,-0.5786,-0.5699,-0.5573,-0.5504,-0.5418,-0.5315,-0.5268,-0.5151,-0.5013,-0.5007,-0.4853,-0.4756,-0.4582,-0.4516,-0.4392,-0.443,-0.4378,-0.4364,-0.4351,-0.434,-0.4677,-0.4368,-0.4369,-0.4369,-0.437,-0.437,0,-0.5588,-0.5535,-0.542,-0.5294,-0.5194,-0.5225,-0.5126,-0.5038,-0.4904,-0.4816,-0.4707,-0.4544,-0.441,-0.434,-0.4206,-0.412,-0.4124,-0.4085,-0.4089,-0.4074,-0.4314,-0.4358,-0.4084,-0.4084,-0.4084,-0.4084,-0.4084,-0.4084,-0.5419,-0.5248,-0.5228,-0.502,-0.4966,-0.4819,-0.4759,-0.4679,-0.4609,-0.4428,-0.4318,-0.4276,-0.4193,-0.4054,-0.3931,-0.3914,-0.3862,-0.3818,-0.3804,-0.4029,-0.4058,-0.4086,-0.4127,-0.3808,-0.3807,-0.3574,-0.3572,-0.357]}]]